Курун-Урях

Россия / Хабаровский край     58°39′42″N   137°20′32″E
темп.,
°C
ветер,
м/с
пор.,
м/с
влажн.,
%
обл.,
%
осадки,
мм/ч
давл.,
гПа
погр.,
м
20 апреля, вт
вт2001:00−4св31196100 3.7 1003994
04:00−3с31196100 6.9 1001675
07:00−2ссв4993100 1.6 1001846
10:00−1ссв3892100 2.8 1002807
13:000ссв3694100 1.4 1003739
16:000с3696100 3.2 1004668
19:00−2сз2497100 2.0 1007420
22:00−5зсз2397100 3.1 100998
21 апреля, ср
ср2101:00−6зсз2297100 1.7 1010102
04:00−7зсз2197100 2.0 101234
07:00−6зсз1294100 0.4 1014212
10:00−4з2477100 0.4 1016876
13:00−3зсз4475100 0.1 10171082
16:00−3зсз457692 0.1 1019889
19:00−4зюз11845 0.0 102140
22:00−14сз2196100 0.0 102410
22 апреля, чт
чт2201:00−12с1196100 0.0 102413
04:00−10всв1196100 0.0 102325
07:00−8в1192100 0.0 102267
10:00−4в1183100 0.0 1020400
13:00−2в1293100 0.7 1018476
16:00−2всв0195100 2.3 1017362
19:00−2ююз1198100 1.3 1018128
22:00−6з1199100 1.6 101910
23 апреля, пт
пт2301:00−5зсз219883 0.3 102027
04:00−7зсз51384100 0.4 1022678
07:00−10зсз6148322 0.0 1025828
10:00−8зсз7138280 0.1 10251128
13:00−5зсз8137991 0.2 10231358
16:00−4сз712755 0.3 10211727
19:00−5зсз511795 0.1 10201100
22:00−12зюз119987 0.2 102011
24 апреля, сб
сб2401:00−14з1110097 0.1 10189
04:00−14зсз11100100 0.1 101610
07:00−10зсз119592 0.0 101458
10:00−4сз713765 0.0 10121395
13:00−4сз814765 0.1 10121516
16:00−4ссз713745 0.2 10121584
19:00−6сз613765 0.0 10131194
22:00−8сз614805 0.0 1012920